Brookings, OR

2:55 PM PDT on June 26, 2017 (GMT -0700)
Brookings State

Weather History for KBOK - February, 2014

Change the Weather History Date:

Sunday, February 16, 2014

  Actual Average Record
Temperature  
Mean Temperature 47 °F -  
Max Temperature 53 °F 54 °F 73 °F (1943)
Min Temperature 41 °F 42 °F 26 °F (2006)
Degree Days  
Heating Degree Days 18    
Moisture  
Dew Point 44 °F    
Average Humidity 87    
Maximum Humidity 100    
Minimum Humidity 74    
Precipitation  
Precipitation 0.00 in - - ()
Sea Level Pressure  
Sea Level Pressure 30.15 in    
Wind  
Wind Speed 5 mph (SSE)    
Max Wind Speed 13 mph    
Max Gust Speed 20 mph    
Visibility 7 miles    
Events Rain    
Averages and records for this station are not official NWS values.
T = Trace of Precipitation, MM = Missing Value Source: NWS Daily Summary

Daily Weather History Graph

Daily Weather History Graph

Search for Another Location

Airport or City:

Trip Planner

Search our weather history database for the weather conditions in past years. The results will help you decide how hot, cold, wet, or windy it might be!

Date:

Astronomy

Feb. 16, 2014 Rise Set
Actual Time 7:11 AM PST 5:51 PM PST
Civil Twilight 6:42 AM PST 6:20 PM PST
Nautical Twilight 6:10 AM PST 6:52 PM PST
Astronomical Twilight 5:37 AM PST 7:25 PM PST
Moon 7:56 PM PST (2/16) 7:41 AM PST (2/16)
Length of Visible Light 11h 37m
Length of Day
10h 39m
Full, 97% of the Moon is Illuminated
Feb 16
Full
Feb 22
Last Quarter
Mar 1
New
Mar 8
First Quarter
Mar 16
Full

Hourly Weather History & Observations

Time (PST) Temp. Windchill Dew Point Humidity Pressure Visibility Wind Dir Wind Speed Gust Speed Precip Events Conditions
12:14 AM 44.6 °F - 42.8 °F 93% 30.02 in 9.0 mi Calm Calm - 0.00 in   Mostly Cloudy
12:56 AM 43.9 °F - 43.9 °F 100% 30.04 in 5.0 mi Calm Calm - 0.00 in   Mostly Cloudy
1:03 AM 44.6 °F - 42.8 °F 93% 30.03 in 6.0 mi Calm Calm - N/A   Scattered Clouds
1:56 AM 43.9 °F 39.9 °F 43.9 °F 100% 30.06 in 7.0 mi Variable 6.9 mph - N/A   Overcast
2:11 AM 44.6 °F - 39.2 °F 81% 30.05 in 10.0 mi Calm Calm - N/A   Mostly Cloudy
2:56 AM 41.9 °F - 41.9 °F 100% 30.06 in 8.0 mi Calm Calm - N/A   Mostly Cloudy
3:56 AM 43.9 °F - 43.0 °F 97% 30.07 in 8.0 mi Calm Calm - N/A   Overcast
4:56 AM 45.0 °F 43.5 °F 43.9 °F 96% 30.09 in 7.0 mi ESE 3.5 mph - N/A   Overcast
5:56 AM 45.0 °F 42.6 °F 43.9 °F 96% 30.10 in 5.0 mi SE 4.6 mph - 0.00 in Rain Light Rain
6:21 AM 44.6 °F 42.2 °F 44.6 °F 100% 30.10 in 7.0 mi Variable 4.6 mph - 0.00 in   Overcast
6:56 AM 43.9 °F - 43.9 °F 100% 30.12 in 5.0 mi Calm Calm - 0.00 in   Mostly Cloudy
7:56 AM 45.9 °F 43.6 °F 43.0 °F 90% 30.14 in 7.0 mi Variable 4.6 mph - N/A   Overcast
8:28 AM 46.4 °F 42.4 °F 44.6 °F 93% 30.16 in 5.0 mi SSE 8.1 mph - N/A   Overcast
8:56 AM 46.9 °F - 43.9 °F 89% 30.18 in 6.0 mi SE 8.1 mph - N/A   Overcast
9:12 AM 48.2 °F - 44.6 °F 87% 30.18 in 6.0 mi SSE 11.5 mph - N/A   Haze
9:33 AM 48.2 °F - 44.6 °F 87% 30.18 in 7.0 mi SSE 12.7 mph - N/A   Overcast
9:56 AM 48.9 °F - 43.9 °F 83% 30.19 in 6.0 mi SSE 10.4 mph - N/A   Haze
10:05 AM 48.2 °F - 44.6 °F 87% 30.19 in 7.0 mi SSE 11.5 mph - N/A   Overcast
10:48 AM 50.0 °F - 44.6 °F 82% 30.20 in 7.0 mi South 9.2 mph - N/A   Overcast
10:56 AM 50.0 °F - 45.0 °F 83% 30.22 in 7.0 mi South 11.5 mph 18.4 mph N/A   Overcast
11:56 AM 52.9 °F - 45.0 °F 74% 30.22 in 7.0 mi South 10.4 mph 18.4 mph N/A   Scattered Clouds
12:56 PM 52.9 °F - 45.9 °F 77% 30.22 in 7.0 mi South 11.5 mph 17.3 mph N/A   Partly Cloudy
1:45 PM 53.6 °F - 46.4 °F 77% 30.21 in 7.0 mi South 10.4 mph 19.6 mph N/A   Mostly Cloudy
1:56 PM 52.9 °F - 46.9 °F 80% 30.22 in 6.0 mi South 10.4 mph 16.1 mph N/A   Haze
2:56 PM 52.9 °F - 46.9 °F 80% 30.22 in 7.0 mi South 9.2 mph 18.4 mph N/A   Mostly Cloudy
3:56 PM 52.0 °F - 46.9 °F 83% 30.21 in 6.0 mi South 11.5 mph - N/A   Haze
4:42 PM 51.8 °F - 46.4 °F 82% 30.19 in 6.0 mi South 12.7 mph - N/A   Mostly Cloudy
4:56 PM 50.9 °F - 46.9 °F 86% 30.19 in 6.0 mi South 9.2 mph - N/A   Scattered Clouds
5:07 PM 50.0 °F - 46.4 °F 87% 30.18 in 6.0 mi SSE 10.4 mph - N/A   Partly Cloudy
5:56 PM 48.9 °F - 43.9 °F 83% 30.17 in 6.0 mi SSE 10.4 mph - N/A   Haze
6:56 PM 47.8 °F - 45.0 °F 90% 30.18 in 6.0 mi SSE 5.8 mph - N/A   Mostly Cloudy
7:56 PM 47.8 °F - 43.0 °F 83% 30.18 in 8.0 mi Variable 6.9 mph - N/A   Mostly Cloudy
8:56 PM 47.8 °F - 43.0 °F 83% 30.19 in 7.0 mi SE 6.9 mph - N/A   Overcast
9:42 PM 48.2 °F - 42.8 °F 82% 30.19 in 7.0 mi SSE 9.2 mph - N/A   Mostly Cloudy
9:56 PM 47.8 °F - 43.0 °F 83% 30.20 in 7.0 mi Variable 6.9 mph - N/A   Scattered Clouds
10:56 PM 47.8 °F - 43.0 °F 83% 30.18 in 8.0 mi Variable 6.9 mph - N/A   Mostly Cloudy
11:56 PM 48.9 °F - 41.9 °F 77% 30.16 in 9.0 mi SSE 6.9 mph - N/A   Overcast